Location: Sungai Bunut
(2.6333°N, 113.7333°E)
Time: 14:49:38
(UTC+00:00)

Vanguard 3 - Pass Details

Date: 05 December 2023
Orbit: 508 x 3239 km, 33.3° (Epoch: 21 February)

Event Time Altitude Azimuth Distance (km) Brightness Sun altitude
Rises 05:48:48 0° 211° (SSW) 5,827 12.0 56.2°
Reaches altitude 10° 05:55:21 10° 189° (S) 5,362 11.9 55.1°
Maximum altitude 06:03:55 15° 158° (SSE) 5,405 11.7 53.6°
Drops below altitude 10° 06:13:31 10° 127° (SE) 6,150 11.7 51.9°
Sets 06:22:06 0° 108° (ESE) 7,164 11.8 50.3°
